Regional Weather Roundup
Issued by NWS

Home | Current Version | Previous Version | Text Only | Print | Product List | Glossary Off
Versions: 1 2 3 4 5 6 7 8 9 10 11 12 13 14 15 16 17 18 19 20 21 22 23 24 25 26 27 28 29 30 31 32 33 34 35 36 37 38 39 40 41 42 43 44 45 46 47 48 49 50

000
ASUS45 KBOI 251710
RWRID

IDAHO REGIONAL WEATHER ROUNDUP
NATIONAL WEATHER SERVICE BOISE ID
1100 AM MDT SAT MAR 25 2017

NOTE: "FAIR" INDICATES FEW OR NO CLOUDS BELOW 12000 FEET
WITH NO SIGNIFICANT WEATHER AND/OR OBSTRUCTIONS TO VISIBILITY

IDZ012-014-251800-
SOUTHWEST IDAHO


CITY           SKY/WX    TMP DP  RH WIND       PRES   REMARKS
BOISE          MOSUNNY   47  38  71 CALM      30.09F
CALDWELL       MOSUNNY   49  38  65 NE3       30.10F
MOUNTAIN HOME  PTSUNNY   49  40  73 NW12      30.09S
$$

IDZ016-017-251800-
SOUTHCENTRAL IDAHO


CITY           SKY/WX    TMP DP  RH WIND       PRES   REMARKS
BURLEY         CLOUDY    43  35  73 W12       30.04F
JEROME         CLOUDY    43  38  82 SW14      30.06F
TWIN FALLS     CLOUDY    43  35  73 SW13      30.06F
$$

IDZ019>023-251800-
SOUTHEAST IDAHO


CITY           SKY/WX    TMP DP  RH WIND       PRES   REMARKS
IDAHO FALLS    CLOUDY    42  37  82 SW16      30.04S
POCATELLO      CLOUDY    42  37  82 SW14      30.06S
REXBURG        CLOUDY    41  34  76 SW14      30.02S
$$

IDZ006-010-011-018-031-032-251800-
CENTRAL IDAHO MOUNTAINS


CITY           SKY/WX    TMP DP  RH WIND       PRES   REMARKS
MCCALL         MOSUNNY   33  31  92 S3        30.04R
HAILEY         CLOUDY    37  30  75 NW8       30.04S WCI  31
STANLEY          N/A     33  27  78 N3        30.05S
SALMON         CLOUDY    41  30  65 CALM      30.05F
CHALLIS        CLOUDY    43  26  51 CALM      30.02F
$$

IDZ002-004-006-007-026-251800-
NORTHERN IDAHO


CITY           SKY/WX    TMP DP  RH WIND       PRES   REMARKS
LEWISTON       CLOUDY    46  42  86 NW5       30.10S
LOWELL           N/A     44  39  82 VRB3      30.12F
COEUR D`ALENE  MOSUNNY   46  36  68 SW13      30.05S
MULLAN PASS    LGT SNOW  29  29 100 VRB3      29.97S VSB 3/4
$$



USA.gov is the U.S. government's official web portal to all federal, state and local government web resources and services.